TimeCST,TemperatureF,Dew PointF,Humidity,Sea Level PressureIn,VisibilityMPH,Wind Direction,Wind SpeedMPH,Gust SpeedMPH,PrecipitationIn,Events,Conditions,WindDirDegrees,DateUTC
12:13 AM,-5.8,-11.2,77,30.32,10.0,Calm,Calm,-,N/A,,Clear,0,2013-03-02 06:13:00
12:33 AM,-5.8,-13.0,71,30.32,10.0,Calm,Calm,-,N/A,,Clear,0,2013-03-02 06:33:00
12:53 AM,-7.6,-14.8,71,30.32,10.0,Calm,Calm,-,N/A,,Clear,0,2013-03-02 06:53:00
1:13 AM,-7.6,-14.8,71,30.32,10.0,Calm,Calm,-,N/A,,Clear,0,2013-03-02 07:13:00
1:33 AM,-7.6,-14.8,71,30.31,10.0,Calm,Calm,-,N/A,,Clear,0,2013-03-02 07:33:00
1:53 AM,-7.6,-14.8,71,30.31,10.0,Calm,Calm,-,N/A,,Clear,0,2013-03-02 07:53:00
2:13 AM,-7.6,-14.8,71,30.31,10.0,Calm,Calm,-,N/A,,Clear,0,2013-03-02 08:13:00
2:33 AM,-7.6,-14.8,71,30.30,10.0,Calm,Calm,-,N/A,,Clear,0,2013-03-02 08:33:00
2:53 AM,-7.6,-14.8,71,30.30,10.0,Calm,Calm,-,N/A,,Clear,0,2013-03-02 08:53:00
3:13 AM,-5.8,-14.8,65,30.30,10.0,Calm,Calm,-,N/A,,Clear,0,2013-03-02 09:13:00
3:33 AM,-7.6,-14.8,71,30.31,10.0,Calm,Calm,-,N/A,,Clear,0,2013-03-02 09:33:00
3:53 AM,-7.6,-16.6,65,30.31,10.0,Calm,Calm,-,N/A,,Clear,0,2013-03-02 09:53:00
4:13 AM,-7.6,-16.6,65,30.31,10.0,Calm,Calm,-,N/A,,Clear,0,2013-03-02 10:13:00
4:33 AM,-7.6,-18.4,59,30.30,10.0,Calm,Calm,-,N/A,,Clear,0,2013-03-02 10:33:00
4:53 AM,-9.4,-18.4,65,30.31,10.0,Calm,Calm,-,N/A,,Clear,0,2013-03-02 10:53:00
5:13 AM,-11.2,-20.2,64,30.31,10.0,Calm,Calm,-,N/A,,Clear,0,2013-03-02 11:13:00
5:53 AM,-13.0,-20.2,70,30.31,10.0,Calm,Calm,-,N/A,,Clear,0,2013-03-02 11:53:00
6:13 AM,-13.0,-20.2,70,30.31,10.0,Calm,Calm,-,N/A,,Clear,0,2013-03-02 12:13:00
6:33 AM,-14.8,-20.2,77,30.31,10.0,Calm,Calm,-,N/A,,Clear,0,2013-03-02 12:33:00
6:53 AM,-14.8,-22.0,70,30.31,10.0,Calm,Calm,-,N/A,,Clear,0,2013-03-02 12:53:00
7:13 AM,-11.2,-18.4,70,30.31,10.0,Calm,Calm,-,N/A,,Clear,0,2013-03-02 13:13:00
7:33 AM,-5.8,-14.8,65,30.31,10.0,Calm,Calm,-,N/A,,Clear,0,2013-03-02 13:33:00
7:53 AM,-2.2,-11.2,66,30.30,10.0,Calm,Calm,-,N/A,,Clear,0,2013-03-02 13:53:00
8:13 AM,3.2,-7.6,61,30.30,10.0,Calm,Calm,-,N/A,,Clear,0,2013-03-02 14:13:00
8:33 AM,10.4,-2.2,57,30.30,10.0,Calm,Calm,-,N/A,,Clear,0,2013-03-02 14:33:00
8:53 AM,15.8,-5.8,38,30.29,10.0,Calm,Calm,-,N/A,,Clear,0,2013-03-02 14:53:00
9:13 AM,21.2,-5.8,30,30.28,10.0,Calm,Calm,-,N/A,,Clear,0,2013-03-02 15:13:00
9:33 AM,26.6,-5.8,24,30.28,10.0,Calm,Calm,-,N/A,,Clear,0,2013-03-02 15:33:00
9:53 AM,30.2,-7.6,19,30.28,10.0,Calm,Calm,-,N/A,,Clear,0,2013-03-02 15:53:00
10:13 AM,26.6,-4.0,26,30.27,10.0,Calm,Calm,-,N/A,,Clear,0,2013-03-02 16:13:00
10:33 AM,26.6,-4.0,26,30.27,10.0,Calm,Calm,-,N/A,,Clear,0,2013-03-02 16:33:00
10:53 AM,30.2,-2.2,25,30.26,10.0,South,6.9,-,N/A,,Clear,170,2013-03-02 16:53:00
11:13 AM,26.6,-2.2,29,30.26,10.0,Calm,Calm,-,N/A,,Clear,0,2013-03-02 17:13:00
11:33 AM,26.6,-2.2,29,30.25,10.0,Calm,Calm,-,N/A,,Clear,0,2013-03-02 17:33:00
11:53 AM,26.6,-5.8,24,30.25,10.0,Calm,Calm,-,N/A,,Clear,0,2013-03-02 17:53:00
12:33 PM,26.6,-7.6,22,30.24,10.0,Calm,Calm,-,N/A,,Clear,0,2013-03-02 18:33:00
12:53 PM,26.6,-7.6,22,30.24,10.0,Calm,Calm,-,N/A,,Clear,0,2013-03-02 18:53:00
1:13 PM,26.6,-7.6,22,30.23,10.0,Calm,Calm,-,N/A,,Clear,0,2013-03-02 19:13:00
1:33 PM,24.8,-7.6,24,30.23,10.0,Calm,Calm,-,N/A,,Clear,0,2013-03-02 19:33:00
1:53 PM,26.6,-7.6,22,30.22,10.0,Calm,Calm,-,N/A,,Clear,0,2013-03-02 19:53:00
2:13 PM,26.6,-7.6,22,30.22,10.0,Calm,Calm,-,N/A,,Clear,0,2013-03-02 20:13:00
2:33 PM,28.4,-7.6,21,30.22,10.0,Calm,Calm,-,N/A,,Clear,0,2013-03-02 20:33:00
2:53 PM,28.4,-5.8,23,30.22,10.0,Calm,Calm,-,N/A,,Clear,0,2013-03-02 20:53:00
3:13 PM,24.8,-4.0,28,30.21,10.0,Calm,Calm,-,N/A,,Clear,0,2013-03-02 21:13:00
3:33 PM,23.0,-4.0,31,30.21,10.0,Calm,Calm,-,N/A,,Clear,0,2013-03-02 21:33:00
3:53 PM,21.2,-0.4,39,30.21,10.0,Calm,Calm,-,N/A,,Clear,0,2013-03-02 21:53:00
4:13 PM,19.4,-0.4,42,30.21,10.0,Calm,Calm,-,N/A,,Clear,0,2013-03-02 22:13:00
4:33 PM,19.4,1.4,46,30.21,10.0,Calm,Calm,-,N/A,,Clear,0,2013-03-02 22:33:00
4:53 PM,19.4,1.4,46,30.20,10.0,Calm,Calm,-,N/A,,Clear,0,2013-03-02 22:53:00
5:13 PM,17.6,1.4,49,30.20,10.0,Calm,Calm,-,N/A,,Clear,0,2013-03-02 23:13:00
5:33 PM,17.6,1.4,49,30.20,10.0,Calm,Calm,-,N/A,,Clear,0,2013-03-02 23:33:00
5:53 PM,15.8,1.4,53,30.20,10.0,Calm,Calm,-,N/A,,Clear,0,2013-03-02 23:53:00
6:13 PM,12.2,1.4,62,30.20,10.0,Calm,Calm,-,N/A,,Clear,0,2013-03-03 00:13:00
6:33 PM,12.2,1.4,62,30.20,10.0,Calm,Calm,-,N/A,,Clear,0,2013-03-03 00:33:00
6:53 PM,8.6,-0.4,67,30.20,10.0,Calm,Calm,-,N/A,,Clear,0,2013-03-03 00:53:00
7:13 PM,6.8,-2.2,67,30.20,10.0,Calm,Calm,-,N/A,,Clear,0,2013-03-03 01:13:00
7:33 PM,5.0,-2.2,72,30.19,10.0,Calm,Calm,-,N/A,,Clear,0,2013-03-03 01:33:00
7:53 PM,3.2,-2.2,78,30.19,10.0,Calm,Calm,-,N/A,,Clear,0,2013-03-03 01:53:00
8:13 PM,1.4,-5.8,72,30.19,10.0,Calm,Calm,-,N/A,,Clear,0,2013-03-03 02:13:00
8:33 PM,-0.4,-5.8,78,30.19,10.0,Calm,Calm,-,N/A,,Clear,0,2013-03-03 02:33:00
8:53 PM,-0.4,-7.6,72,30.19,10.0,Calm,Calm,-,N/A,,Clear,0,2013-03-03 02:53:00
9:13 PM,-0.4,-7.6,72,30.18,10.0,Calm,Calm,-,N/A,,Clear,0,2013-03-03 03:13:00
9:34 PM,-2.2,-7.6,78,30.18,10.0,Calm,Calm,-,N/A,,Clear,0,2013-03-03 03:34:00
9:53 PM,-2.2,-9.4,71,30.17,10.0,Calm,Calm,-,N/A,,Clear,0,2013-03-03 03:53:00
10:13 PM,-4.0,-9.4,78,30.17,10.0,Calm,Calm,-,N/A,,Clear,0,2013-03-03 04:13:00
10:33 PM,-4.0,-9.4,78,30.16,10.0,Calm,Calm,-,N/A,,Clear,0,2013-03-03 04:33:00
10:53 PM,-4.0,-11.2,71,30.16,10.0,Calm,Calm,-,N/A,,Clear,0,2013-03-03 04:53:00
11:13 PM,-5.8,-11.2,77,30.16,10.0,Calm,Calm,-,N/A,,Clear,0,2013-03-03 05:13:00
11:33 PM,-5.8,-11.2,77,30.15,10.0,Calm,Calm,-,N/A,,Clear,0,2013-03-03 05:33:00
11:53 PM,-7.6,-13.0,77,30.15,10.0,Calm,Calm,-,N/A,,Clear,0,2013-03-03 05:53:00